Location: Val-d'Or
(48.1170°N, 77.7670°W)
Time: 11:23:17
(UTC-04:00)

ISS - Pass Details

Date: 01 July 2019
Orbit: 409 x 418 km, 51.6° (Epoch: 18 July)

Event Time Altitude Azimuth Distance (km) Brightness Sun altitude
Exits shadow 04:22:23 - 193° (SSW) 1,703 -1.2 -7.3°
Reaches altitude 10° 04:23:07 10° 186° (S) 1,470 -1.5 -7.2°
Maximum altitude 04:25:30 19° 139° (SE) 1,055 -1.8 -7.0°
Drops below altitude 10° 04:27:54 10° 92° (E) 1,475 -0.3 -6.7°
Sets 04:30:23 0° 74° (ENE) 2,339 1.2 -6.4°
